Location: Unspecified
(0.0000°N, 0.0000°E)
Time: 10:19:09
(UTC+00:00)

deb Delta 104 - Pass Details

Date: 10 March 2026
Orbit: 754 x 1064 km, 103.0° (Epoch: 20 April)

Event Time Altitude Azimuth Distance (km) Brightness Sun altitude
Rises 19:26:43 0° 170° (S) 3,782 ? -19.1°
Reaches altitude 10° 19:29:18 10° 174° (S) 2,797 ? -19.7°
Maximum altitude 19:35:28 61° 252° (WSW) 1,090 ? -21.3°
Drops below altitude 10° 19:41:11 10° 332° (NNW) 2,592 ? -22.7°
Sets 19:43:31 0° 336° (NNW) 3,485 ? -23.3°
